Bellefontaine, OH

9:54 PM EDT on March 26, 2017 (GMT -0400)
Bellefontaine

Weather History for KEDJ - August, 2013

Change the Weather History Date:

Wednesday, August 28, 2013

  Actual Average (KDAY) Record (KDAY)
Temperature  
Mean Temperature 76 °F -  
Max Temperature 84 °F 81 °F 96 °F (1953)
Min Temperature 69 °F 62 °F 40 °F (1910)
Cooling Degree Days 12    
Growing Degree Days 26 (Base 50)    
Moisture  
Dew Point 72 °F    
Average Humidity 85    
Maximum Humidity 100    
Minimum Humidity 65    
Precipitation  
Precipitation 0.00 in - - ()
Sea Level Pressure  
Sea Level Pressure 29.92 in    
Wind  
Wind Speed 7 mph (West)    
Max Wind Speed 15 mph    
Max Gust Speed 17 mph    
Visibility 9 miles    
Events      
Averages and records for this station are not official NWS values.
T = Trace of Precipitation, MM = Missing Value Source: NWS Daily Summary

Daily Weather History Graph

Daily Weather History Graph

Search for Another Location

Airport or City:

Trip Planner

Search our weather history database for the weather conditions in past years. The results will help you decide how hot, cold, wet, or windy it might be!

Date:

Astronomy

Aug. 28, 2013 Rise Set
Actual Time 6:59 AM EDT 8:13 PM EDT
Civil Twilight 6:30 AM EDT 8:41 PM EDT
Nautical Twilight 5:57 AM EDT 9:14 PM EDT
Astronomical Twilight 5:21 AM EDT 9:50 PM EDT
Moon 12:05 AM EDT (8/28) 2:50 PM EDT (8/28)
Length of Visible Light 14h 10m
Length of Day
13h 14m
Waning Gibbous, 47% of the Moon is Illuminated
Aug 28
Waning Gibbous
Sep 5
New
Sep 12
First Quarter
Sep 19
Full
Sep 26
Last Quarter

Hourly Weather History & Observations

Time (EDT) Temp. Heat Index Dew Point Humidity Pressure Visibility Wind Dir Wind Speed Gust Speed Precip Events Conditions
12:10 AM 73.4 °F - 73.4 °F 100% 29.96 in 10.0 mi SSW 4.6 mph - 0.00 in   Clear
12:30 AM 73.4 °F - 73.4 °F 100% 29.94 in 10.0 mi South 8.1 mph - 0.00 in   Clear
1:10 AM 73.4 °F - 71.6 °F 94% 29.93 in 10.0 mi SSW 5.8 mph - 0.00 in   Clear
1:30 AM 73.4 °F - 71.6 °F 94% 29.94 in 10.0 mi SSW 6.9 mph - 0.00 in   Scattered Clouds
1:50 AM 73.4 °F - 71.6 °F 94% 29.93 in 10.0 mi SW 6.9 mph - 0.00 in   Scattered Clouds
2:10 AM 73.4 °F - 71.6 °F 94% 29.93 in 10.0 mi SSW 5.8 mph - 0.00 in   Mostly Cloudy
2:50 AM 73.4 °F - 71.6 °F 94% 29.93 in 10.0 mi SSW 5.8 mph - 0.00 in   Clear
3:10 AM 73.4 °F - 73.4 °F 100% 29.93 in 10.0 mi SSW 3.5 mph - 0.00 in   Clear
3:30 AM 73.4 °F - 73.4 °F 100% 29.93 in 10.0 mi South 3.5 mph - 0.00 in   Clear
3:50 AM 73.4 °F - 73.4 °F 100% 29.92 in 10.0 mi South 4.6 mph - 0.00 in   Clear
4:10 AM 73.4 °F - 73.4 °F 100% 29.92 in 10.0 mi SSW 5.8 mph - 0.00 in   Clear
4:30 AM 73.4 °F - 73.4 °F 100% 29.92 in 10.0 mi SSW 6.9 mph - 0.00 in   Clear
4:50 AM 73.4 °F - 71.6 °F 94% 29.92 in 10.0 mi SW 6.9 mph - 0.00 in   Clear
5:10 AM 73.4 °F - 71.6 °F 94% 29.91 in 10.0 mi SW 6.9 mph - 0.00 in   Clear
5:30 AM 73.4 °F - 71.6 °F 94% 29.91 in 10.0 mi SW 8.1 mph - 0.00 in   Scattered Clouds
5:50 AM 73.4 °F - 71.6 °F 94% 29.91 in 10.0 mi SW 5.8 mph - 0.00 in   Partly Cloudy
6:10 AM 71.6 °F - 71.6 °F 100% 29.90 in 10.0 mi SW 6.9 mph - 0.00 in   Clear
6:30 AM 71.6 °F - 71.6 °F 100% 29.89 in 10.0 mi SW 8.1 mph - 0.00 in   Clear
6:50 AM 71.6 °F - 71.6 °F 100% 29.89 in 10.0 mi SW 6.9 mph - 0.00 in   Clear
7:10 AM 71.6 °F - 71.6 °F 100% 29.89 in 8.0 mi SW 6.9 mph - 0.00 in   Clear
7:30 AM 71.6 °F - 71.6 °F 100% 29.89 in 10.0 mi WSW 8.1 mph - 0.00 in   Clear
7:50 AM 73.4 °F - 71.6 °F 94% 29.89 in 9.0 mi WSW 6.9 mph - 0.00 in   Clear
8:10 AM 73.4 °F - 69.8 °F 88% 29.89 in 10.0 mi WSW 5.8 mph - 0.00 in   Clear
8:30 AM 75.2 °F - 69.8 °F 83% 29.89 in 10.0 mi West 9.2 mph - 0.00 in   Clear
8:50 AM 75.2 °F - 69.8 °F 83% 29.89 in 10.0 mi WSW 9.2 mph - 0.00 in   Clear
9:10 AM 78.8 °F - 69.8 °F 74% 29.90 in 10.0 mi West 10.4 mph - 0.00 in   Clear
9:30 AM 78.8 °F - 69.8 °F 74% 29.90 in 10.0 mi West 9.2 mph 16.1 mph 0.00 in   Clear
9:50 AM 78.8 °F - 69.8 °F 74% 29.90 in 10.0 mi West 10.4 mph - 0.00 in   Clear
10:10 AM 80.6 °F 83.9 °F 69.8 °F 70% 29.90 in 10.0 mi West 10.4 mph - 0.00 in   Clear
10:30 AM 80.6 °F 83.2 °F 68.0 °F 65% 29.90 in 10.0 mi West 11.5 mph - 0.00 in   Clear
10:50 AM 80.6 °F 83.9 °F 69.8 °F 70% 29.90 in 10.0 mi West 9.2 mph - 0.00 in   Clear
11:10 AM 82.4 °F 86.3 °F 69.8 °F 66% 29.91 in 10.0 mi West 8.1 mph - 0.00 in   Partly Cloudy
11:30 AM 80.6 °F 83.9 °F 69.8 °F 70% 29.91 in 10.0 mi West 9.2 mph - 0.00 in   Mostly Cloudy
11:50 AM 80.6 °F 83.9 °F 69.8 °F 70% 29.91 in 10.0 mi WNW 6.9 mph - 0.00 in   Mostly Cloudy
12:10 PM 82.4 °F 86.3 °F 69.8 °F 66% 29.91 in 10.0 mi WNW 5.8 mph - 0.00 in   Overcast
12:30 PM 80.6 °F 83.9 °F 69.8 °F 70% 29.91 in 10.0 mi NW 8.1 mph - 0.00 in   Overcast
12:50 PM 82.4 °F 87.2 °F 71.6 °F 70% 29.91 in 10.0 mi WNW 9.2 mph - 0.00 in   Overcast
1:10 PM 82.4 °F 87.2 °F 71.6 °F 70% 29.90 in 10.0 mi West 8.1 mph - 0.00 in   Mostly Cloudy
1:30 PM 82.4 °F 87.2 °F 71.6 °F 70% 29.90 in 10.0 mi WNW 8.1 mph 16.1 mph 0.00 in   Mostly Cloudy
1:50 PM 82.4 °F 87.2 °F 71.6 °F 70% 29.90 in 10.0 mi WNW 8.1 mph - 0.00 in   Overcast
2:10 PM 84.2 °F 89.6 °F 71.6 °F 66% 29.90 in 10.0 mi NW 9.2 mph - 0.00 in   Mostly Cloudy
2:30 PM 84.2 °F 89.6 °F 71.6 °F 66% 29.91 in 10.0 mi NW 9.2 mph - 0.00 in   Mostly Cloudy
2:50 PM 82.4 °F 87.2 °F 71.6 °F 70% 29.91 in 10.0 mi WNW 9.2 mph - 0.00 in   Mostly Cloudy
3:10 PM 82.4 °F 87.2 °F 71.6 °F 70% 29.90 in 10.0 mi WNW 8.1 mph - 0.00 in   Mostly Cloudy
3:30 PM 82.4 °F 87.2 °F 71.6 °F 70% 29.91 in 10.0 mi NNW 10.4 mph - 0.00 in   Mostly Cloudy
3:50 PM 82.4 °F 87.2 °F 71.6 °F 70% 29.91 in 10.0 mi NNW 10.4 mph - 0.00 in   Overcast
4:10 PM 84.2 °F 90.9 °F 73.4 °F 70% 29.91 in 10.0 mi NW 10.4 mph - 0.00 in   Mostly Cloudy
4:30 PM 82.4 °F 88.2 °F 73.4 °F 74% 29.91 in 10.0 mi NW 8.1 mph - 0.00 in   Mostly Cloudy
4:50 PM 84.2 °F 90.9 °F 73.4 °F 70% 29.91 in 10.0 mi WNW 10.4 mph - 0.00 in   Scattered Clouds
5:10 PM 84.2 °F 90.9 °F 73.4 °F 70% 29.90 in 10.0 mi NW 6.9 mph - 0.00 in   Scattered Clouds
5:30 PM 84.2 °F 90.9 °F 73.4 °F 70% 29.90 in 10.0 mi NW 9.2 mph - 0.00 in   Scattered Clouds
5:50 PM 84.2 °F 90.9 °F 73.4 °F 70% 29.91 in 10.0 mi NNW 10.4 mph - 0.00 in   Mostly Cloudy
6:10 PM 84.2 °F 90.9 °F 73.4 °F 70% 29.91 in 10.0 mi NNW 13.8 mph 17.3 mph 0.00 in   Scattered Clouds
6:30 PM 80.6 °F 86.2 °F 75.2 °F 84% 29.91 in 8.0 mi North 8.1 mph - 0.00 in   Scattered Clouds
6:50 PM 80.6 °F 86.2 °F 75.2 °F 84% 29.91 in 10.0 mi North 5.8 mph - 0.00 in   Partly Cloudy
7:10 PM 80.6 °F 85.4 °F 73.4 °F 79% 29.92 in 10.0 mi NNE 15.0 mph - 0.00 in   Mostly Cloudy
7:30 PM 78.8 °F - 73.4 °F 83% 29.92 in 9.0 mi NNE 8.1 mph - 0.00 in   Partly Cloudy
7:50 PM 78.8 °F - 73.4 °F 83% 29.93 in 8.0 mi NNE 6.9 mph - 0.00 in   Clear
8:10 PM 75.2 °F - 73.4 °F 94% 29.94 in 6.0 mi North 4.6 mph - 0.00 in   Clear
8:30 PM 75.2 °F - 73.4 °F 94% 29.95 in 8.0 mi NNE 6.9 mph - 0.00 in   Clear
8:50 PM 73.4 °F - 71.6 °F 94% 29.95 in 8.0 mi NNE 4.6 mph - 0.00 in   Clear
9:10 PM 73.4 °F - 71.6 °F 94% 29.96 in 8.0 mi NNE 6.9 mph - 0.00 in   Clear
9:30 PM 73.4 °F - 71.6 °F 94% 29.97 in 8.0 mi NNE 4.6 mph - 0.00 in   Clear
9:50 PM 73.4 °F - 71.6 °F 94% 29.98 in 8.0 mi NNE 4.6 mph - 0.00 in   Clear
10:10 PM 71.6 °F - 71.6 °F 100% 29.98 in 7.0 mi NNE 3.5 mph - 0.00 in   Clear
10:30 PM 71.6 °F - 71.6 °F 100% 29.99 in 5.0 mi Calm Calm - 0.00 in   Clear
10:50 PM 69.8 °F - 69.8 °F 100% 30.00 in 5.0 mi Calm Calm - 0.00 in   Mostly Cloudy
11:10 PM 71.6 °F - 71.6 °F 100% 30.00 in 3.0 mi Calm Calm - 0.00 in   Overcast
11:30 PM 71.6 °F - 71.6 °F 100% 30.00 in 5.0 mi Calm Calm - 0.00 in   Overcast
11:50 PM 71.6 °F - 71.6 °F 100% 30.01 in 4.0 mi Calm Calm - 0.00 in   Overcast